Starlink 32099

operational
NORAD ID: 59697 Int'l Des: 2024-086 Owner: SPXS Country: US Constellation: starlink
LEOCIRCULAR

关于 Starlink 32099

正在加载描述...

实时位置

正在加载3D地球...

即将过境

高度历史

Altitude vs Time

uPlot chart will show altitude changes over time

两行轨道根数

1 59697U 24086R 25257.27026916 -.00001140 00000-0 -31908-4 0 9993
2 59697 43.0026 336.0022 0000943 270.2075 89.8669 15.27578687 77138
Epoch: Sep 14, 2025 • Age: 24 hours

当前状态

高度 483.4 km
速度 7.63 km/s
星下点 25.45°N, 25.73°E
发射日期 May 8, 2024
运行时间 1.3 years
类型 internet

技术详情

分类 Payload
质量 730.00 kg
干质量 700.00 kg
总质量 730.00 kg
长度 0.30 m
直径 4.10 m
跨度 29.00 m
形状 Box + pan
制造商 SPXS
平台类型 Starlink V2M
阶段状态 In Orbit
所有者/国家 SPXS/US

大型星座

Loading constellations...